FW0409 Weather Reports


Display with metric or nautical units.
time (UTC)temp
F
wind
direction
speed
MPH
gust
MPH
rain 1hr
in
rain 24hr
in
rain mn
in
humidity
%
barometer
mb
20260505102032 56 176 1.0 5.0 0.00 0.00 0.00 81 1014.2
20260505101549 56 173 1.0 5.0 0.00 0.00 0.00 81 1014.3
20260505101034 56 170 2.0 4.0 0.00 0.00 0.00 81 1014.4
20260505100530 56 171 2.0 4.0 0.00 0.00 0.00 81 1014.4
20260505100053 56 171 0.0 3.0 0.00 0.00 0.00 81 1014.4
20260505095531 56 171 2.0 4.0 0.00 0.00 0.00 81 1014.3
20260505095028 56 171 1.0 4.0 0.00 0.00 0.00 81 1014.2
20260505094531 56 171 2.0 7.0 0.00 0.00 0.00 80 1014.1
20260505094028 56 169 2.0 7.0 0.00 0.00 0.00 80 1014.2
20260505093527 56 173 2.0 6.0 0.00 0.00 0.00 80 1014.2
20260505093026 56 162 2.0 6.0 0.00 0.00 0.00 80 1014.2
20260505092526 57 167 4.0 7.0 0.00 0.00 0.00 80 1014.1
20260505092024 57 171 1.0 4.0 0.00 0.00 0.00 79 1014.1
20260505091524 57 171 1.0 4.0 0.00 0.00 0.00 79 1014.0
20260505091023 57 169 0.0 4.0 0.00 0.00 0.00 79 1013.9
20260505090522 57 169 1.0 6.0 0.00 0.00 0.00 78 1013.8
20260505090021 57 159 3.0 5.0 0.00 0.00 0.00 79 1014.0
20260505085523 57 166 3.0 6.0 0.00 0.00 0.00 78 1013.8
20260505085020 57 145 2.0 4.0 0.00 0.00 0.00 78 1013.7
20260505084520 58 168 1.0 6.0 0.00 0.00 0.00 78 1013.7
20260505084020 58 167 3.0 6.0 0.00 0.00 0.00 78 1013.8
20260505083521 58 171 0.0 4.0 0.00 0.00 0.00 78 1013.7
20260505083023 58 171 1.0 5.0 0.00 0.00 0.00 77 1013.7
20260505082518 58 171 1.0 7.0 0.00 0.00 0.00 78 1013.6
20260505082018 58 170 2.0 4.0 0.00 0.00 0.00 78 1013.6
20260505081517 58 168 0.0 3.0 0.00 0.00 0.00 78 1013.6
20260505081017 58 168 1.0 6.0 0.00 0.00 0.00 78 1013.5
20260505080517 58 168 2.0 6.0 0.00 0.00 0.00 78 1013.6
20260505080019 58 165 1.0 6.0 0.00 0.00 0.00 78 1013.5
20260505075515 58 165 3.0 6.0 0.00 0.00 0.00 78 1013.5
20260505075015 58 182 2.0 4.0 0.00 0.00 0.00 78 1013.5
20260505074515 58 182 1.0 4.0 0.00 0.00 0.00 78 1013.4
20260505074014 58 184 0.0 4.0 0.00 0.00 0.00 77 1013.4
20260505073513 58 184 2.0 4.0 0.00 0.00 0.00 77 1013.3
20260505073030 58 186 1.0 4.0 0.00 0.00 0.00 77 1013.1
20260505072511 59 198 0.0 2.0 0.00 0.00 0.00 77 1013.1
20260505072010 59 198 0.0 2.0 0.00 0.00 0.00 76 1012.9
20260505071509 59 198 0.0 2.0 0.00 0.00 0.00 76 1012.9
20260505071010 60 198 0.0 5.0 0.00 0.00 0.00 76 1013.0
20260505070512 60 198 1.0 6.0 0.00 0.00 0.00 75 1012.9
20260505070012 60 165 3.0 7.0 0.00 0.00 0.00 75 1012.7
20260505065507 60 161 2.0 6.0 0.00 0.00 0.00 75 1012.7
20260505065006 61 165 3.0 6.0 0.00 0.00 0.00 75 1012.7
20260505064509 61 169 2.0 6.0 0.00 0.00 0.00 74 1012.6
20260505064006 62 135 2.0 6.0 0.00 0.00 0.00 73 1012.4
20260505063506 62 177 1.0 5.0 0.00 0.00 0.00 74 1012.4
20260505063006 62 179 1.0 5.0 0.00 0.00 0.00 73 1012.3
20260505062506 62 218 0.0 3.0 0.00 0.00 0.00 72 1012.2
20260505062010 63 218 0.0 5.0 0.00 0.00 0.00 72 1012.2
20260505061518 63 229 2.0 5.0 0.00 0.00 0.00 72 1012.1
20260505061005 63 262 0.0 3.0 0.00 0.00 0.00 72 1012.1
20260505060506 64 263 0.0 3.0 0.00 0.00 0.00 71 1012.0
20260505060005 64 263 0.0 3.0 0.00 0.00 0.00 71 1011.9
20260505055504 64 263 0.0 2.0 0.00 0.00 0.00 71 1011.9
20260505055007 64 264 0.0 4.0 0.00 0.00 0.00 70 1011.8
20260505054505 65 264 1.0 4.0 0.00 0.00 0.00 70 1011.7
20260505054005 65 254 0.0 5.0 0.00 0.00 0.00 70 1011.8
20260505053506 65 256 2.0 5.0 0.00 0.00 0.00 69 1011.9
20260505053007 65 248 2.0 7.0 0.00 0.00 0.00 69 1011.9
20260505052504 66 245 1.0 7.0 0.00 0.00 0.00 69 1011.8
20260505052009 66 274 1.0 4.0 0.00 0.00 0.00 69 1011.7
20260505051513 66 173 1.0 6.0 0.00 0.00 0.00 72 1011.8
20260505051006 66 171 4.0 6.0 0.00 0.00 0.00 73 1011.7
20260505050503 66 177 1.0 5.0 0.00 0.00 0.00 74 1011.6
20260505041505 66 162 0.0 1.0 0.00 0.00 0.00 75 1011.1
20260505041002 66 162 0.0 3.0 0.00 0.00 0.00 75 1011.0
20260505040501 66 162 1.0 3.0 0.00 0.00 0.00 75 1010.8
20260505040001 66 162 1.0 3.0 0.00 0.00 0.00 74 1010.7
20260505035500 67 162 1.0 3.0 0.00 0.00 0.00 74 1010.5
20260505035001 67 162 1.0 5.0 0.00 0.00 0.00 74 1010.5
20260505034500 67 162 1.0 5.0 0.00 0.00 0.00 73 1010.6
20260505034100 67 163 2.0 5.0 0.00 0.00 0.00 73 1010.4
20260505033601 68 165 1.0 3.0 0.00 0.00 0.00 72 1010.5
20260505033104 68 165 1.0 3.0 0.00 0.00 0.00 71 1010.4
20260505032601 68 165 1.0 3.0 0.00 0.00 0.00 71 1010.3
20260505032059 68 166 2.0 5.0 0.00 0.00 0.00 70 1010.1
20260505031600 69 169 2.0 5.0 0.00 0.00 0.00 70 1010.2
20260505031100 69 173 3.0 6.0 0.00 0.00 0.00 70 1010.2
20260505030558 69 163 3.0 9.0 0.00 0.00 0.00 69 1010.2
20260505030058 69 167 5.0 9.0 0.00 0.00 0.00 68 1010.0
20260505025558 70 171 4.0 8.0 0.00 0.00 0.00 68 1010.1
20260505025057 70 157 3.0 7.0 0.00 0.00 0.00 68 1010.0
20260505024558 70 169 3.0 6.0 0.00 0.00 0.00 68 1009.9
20260505024057 70 166 3.0 5.0 0.00 0.00 0.00 67 1009.8
20260505023557 71 172 3.0 5.0 0.00 0.00 0.00 67 1009.7
20260505023103 71 159 2.0 8.0 0.00 0.00 0.00 66 1009.8
20260505022557 71 162 4.0 8.0 0.00 0.00 0.00 66 1009.8
20260505022057 71 159 3.0 7.0 0.00 0.00 0.00 65 1009.7
20260505021557 71 172 2.0 8.0 0.00 0.00 0.00 66 1009.7
20260505021056 72 169 4.0 7.0 0.00 0.00 0.00 65 1009.6
20260505020555 72 173 3.0 7.0 0.00 0.00 0.00 64 1009.7
20260505020057 72 180 2.0 5.0 0.00 0.00 0.00 64 1009.7
20260505015555 72 167 3.0 9.0 0.00 0.00 0.00 64 1009.7
20260505015055 72 167 4.0 9.0 0.00 0.00 0.00 63 1009.7
20260505014600 72 175 3.0 8.0 0.00 0.00 0.00 63 1009.9
20260505014055 72 172 3.0 8.0 0.00 0.00 0.00 63 1009.8
20260505013554 72 178 2.0 8.0 0.00 0.00 0.00 63 1009.9
20260505013057 72 172 2.0 8.0 0.00 0.00 0.00 63 1010.0
20260505012555 72 170 2.0 10.0 0.00 0.00 0.00 63 1010.0
20260505012054 72 170 3.0 6.0 0.00 0.00 0.00 62 1010.0
20260505011554 73 165 0.0 5.0 0.00 0.00 0.00 62 1010.1
20260505011053 73 162 2.0 8.0 0.00 0.00 0.00 61 1010.2
20260505010554 73 183 3.0 8.0 0.00 0.00 0.00 61 1010.2
20260505010112 72 172 5.0 9.0 0.00 0.00 0.00 62 1010.1
20260505005553 72 178 3.0 10.0 0.00 0.00 0.00 62 1010.1
20260505005053 73 192 1.0 9.0 0.00 0.00 0.00 60 1010.2
20260505004553 73 180 4.0 9.0 0.00 0.00 0.00 61 1010.2
20260505004052 73 194 2.0 9.0 0.00 0.00 0.00 61 1010.2
20260505003554 73 166 3.0 8.0 0.00 0.00 0.00 61 1010.0
20260505003055 72 134 4.0 8.0 0.00 0.00 0.00 61 1010.3
20260505002552 73 190 1.0 5.0 0.00 0.00 0.00 60 1010.2
20260505002052 73 192 2.0 10.0 0.00 0.00 0.00 60 1010.2
20260505001552 73 159 6.0 11.0 0.00 0.00 0.00 60 1010.2
20260505001055 73 153 6.0 11.0 0.00 0.00 0.00 59 1010.3
20260505000550 73 183 4.0 8.0 0.00 0.00 0.00 60 1010.1
20260505000051 73 248 1.0 7.0 0.00 0.00 0.00 60 1010.2
20260504235551 73 174 4.0 7.0 0.00 0.00 0.00 59 1010.3
20260504235050 73 184 1.0 10.0 0.00 0.00 0.00 59 1010.2
20260504234550 73 186 4.0 10.0 0.00 0.00 0.00 59 1010.3
20260504234050 73 238 2.0 6.0 0.00 0.00 0.00 60 1010.3
20260504233554 73 192 2.0 7.0 0.00 0.00 0.00 59 1010.3
20260504233052 73 176 2.0 6.0 0.00 0.00 0.00 60 1010.3
20260504232550 73 182 3.0 6.0 0.00 0.00 0.00 60 1010.4
20260504232049 73 182 1.0 8.0 0.00 0.00 0.00 59 1010.4
20260504231553 73 166 4.0 11.0 0.00 0.00 0.00 60 1010.5
20260504231049 73 180 4.0 11.0 0.00 0.00 0.00 60 1010.5
20260504230551 73 183 1.0 7.0 0.00 0.00 0.00 61 1010.5
20260504230050 73 304 3.0 10.0 0.00 0.00 0.00 60 1010.6
20260504225549 73 160 6.0 10.0 0.00 0.00 0.00 59 1010.7
20260504225048 73 135 2.0 5.0 0.00 0.00 0.00 60 1010.8
20260504224548 73 244 0.0 5.0 0.00 0.00 0.00 59 1010.8
20260504224048 73 188 1.0 5.0 0.00 0.00 0.00 59 1010.7
20260504223551 73 165 2.0 8.0 0.00 0.00 0.00 58 1010.9
20260504223059 73 250 3.0 8.0 0.00 0.00 0.00 56 1010.9
20260504222550 73 237 1.0 7.0 0.00 0.00 0.00 59 1011.0
20260504222044 74 223 1.0 7.0 0.00 0.00 0.00 58 1011.0
20260504221556 73 181 4.0 8.0 0.00 0.00 0.00 61 1011.1
20260504221043 73 225 0.0 6.0 0.00 0.00 0.00 60 1011.0
20260504220540 72 167 2.0 7.0 0.00 0.00 0.00 60 1011.2
20260504220040 72 245 2.0 7.0 0.00 0.00 0.00 61 1011.2
20260504215540 72 181 2.0 9.0 0.00 0.00 0.00 61 1011.4
20260504215038 72 153 3.0 9.0 0.00 0.00 0.00 62 1011.4
20260504214539 72 152 3.0 8.0 0.00 0.00 0.00 61 1011.5
20260504214037 71 148 3.0 8.0 0.00 0.00 0.00 64 1011.5
20260504213536 71 141 1.0 7.0 0.00 0.00 0.00 62 1011.6
20260504213047 70 216 2.0 7.0 0.00 0.00 0.00 61 1011.7
20260504212533 70 263 1.0 5.0 0.00 0.00 0.00 62 1011.8
20260504212033 70 194 2.0 8.0 0.00 0.00 0.00 63 1011.9
20260504211537 70 167 1.0 9.0 0.00 0.00 0.00 65 1011.9
20260504211033 70 186 1.0 9.0 0.00 0.00 0.00 63 1012.0
20260504210531 69 189 2.0 7.0 0.00 0.00 0.00 64 1011.9
20260504210032 69 163 3.0 7.0 0.00 0.00 0.00 66 1012.1
20260504205531 69 163 3.0 7.0 0.00 0.00 0.00 63 1012.2
20260504205031 69 201 3.0 8.0 0.00 0.00 0.00 64 1012.3
20260504204530 69 187 0.0 9.0 0.00 0.00 0.00 66 1012.3
20260504204028 69 200 2.0 8.0 0.00 0.00 0.00 66 1012.4
20260504203529 68 192 2.0 10.0 0.00 0.00 0.00 67 1012.4
20260504203037 68 189 4.0 6.0 0.00 0.00 0.00 66 1012.5
20260504202525 68 271 2.0 7.0 0.00 0.00 0.00 66 1012.6
20260504202024 67 252 2.0 8.0 0.00 0.00 0.00 68 1012.6
20260504201526 67 187 2.0 8.0 0.00 0.00 0.00 68 1012.6
20260504201022 67 186 1.0 7.0 0.00 0.00 0.00 68 1012.6
20260504200525 66 175 3.0 6.0 0.00 0.00 0.00 68 1012.8
20260504200021 66 219 2.0 5.0 0.00 0.00 0.00 69 1012.8
20260504195519 66 249 1.0 6.0 0.00 0.00 0.00 69 1012.7
20260504195020 65 190 2.0 8.0 0.00 0.00 0.00 69 1012.8
20260504194528 65 181 2.0 8.0 0.00 0.00 0.00 70 1012.9
20260504194020 65 277 3.0 8.0 0.00 0.00 0.00 70 1013.0
20260504193522 65 187 3.0 9.0 0.00 0.00 0.00 69 1013.0
20260504193021 65 159 2.0 8.0 0.00 0.00 0.00 69 1013.0
20260504192519 66 323 1.0 8.0 0.00 0.00 0.00 69 1012.9
20260504192018 65 169 0.0 5.0 0.00 0.00 0.00 70 1013.0
20260504191530 65 253 2.0 8.0 0.00 0.00 0.00 71 1013.0
20260504191016 65 146 2.0 9.0 0.00 0.00 0.00 70 1013.1
20260504190515 64 196 3.0 9.0 0.00 0.00 0.00 72 1013.2
20260504190014 64 183 2.0 5.0 0.00 0.00 0.00 70 1013.1
20260504185513 64 181 1.0 9.0 0.00 0.00 0.00 74 1013.3
20260504185013 64 167 4.0 10.0 0.00 0.00 0.00 73 1013.3
20260504184517 63 153 5.0 10.0 0.00 0.00 0.00 72 1013.2
20260504184013 63 195 2.0 8.0 0.00 0.00 0.00 72 1013.4
20260504183513 63 183 2.0 8.0 0.00 0.00 0.00 73 1013.5
20260504183012 63 206 1.0 8.0 0.00 0.00 0.00 73 1013.3
20260504182514 62 177 3.0 8.0 0.00 0.00 0.00 73 1013.4
20260504182013 62 171 4.0 9.0 0.00 0.00 0.00 74 1013.3
20260504181517 62 258 2.0 4.0 0.00 0.00 0.00 75 1013.3
20260504181011 61 208 1.0 3.0 0.00 0.00 0.00 75 1013.2
20260504180511 61 242 0.0 4.0 0.00 0.00 0.00 76 1013.4
20260504180016 61 206 1.0 4.0 0.00 0.00 0.00 75 1013.3
20260504175510 60 223 1.0 5.0 0.00 0.00 0.00 76 1013.3
20260504175010 60 199 1.0 5.0 0.00 0.00 0.00 75 1013.3
20260504174510 60 234 1.0 5.0 0.00 0.00 0.00 77 1013.4
20260504174010 60 250 2.0 5.0 0.00 0.00 0.00 76 1013.4
20260504173510 60 184 1.0 5.0 0.00 0.00 0.00 77 1013.4
20260504173011 60 184 2.0 5.0 0.00 0.00 0.00 76 1013.3
20260504172510 59 241 0.0 6.0 0.00 0.00 0.00 77 1013.2
20260504172009 59 186 3.0 6.0 0.00 0.00 0.00 76 1013.3
20260504171510 59 279 1.0 5.0 0.00 0.00 0.00 77 1013.2
20260504171010 59 166 1.0 7.0 0.00 0.00 0.00 78 1013.1
20260504170509 59 165 4.0 7.0 0.00 0.00 0.00 78 1013.5
20260504151001 58 147 5.0 9.0 0.00 0.00 0.00 80 1012.9
20260504150501 58 150 3.0 9.0 0.00 0.00 0.00 81 1012.9
20260504150112 57 143 2.0 9.0 0.00 0.00 0.00 80 1012.9
20260504141056 56 157 0.0 3.0 0.00 0.00 0.00 83 1012.3
20260504140555 56 157 1.0 5.0 0.00 0.00 0.00 83 1012.2
20260504130546 56 167 0.0 5.0 0.00 0.00 0.00 81 1011.1
20260504110529 59 166 3.0 6.0 0.00 0.00 0.00 77 1009.5